Location: Unspecified
(50.7693°N, 0.0000°E)
Time: 18:28:06
(UTC+00:00)

Vanguard 1 Rocket - Pass Details

Date: 29 June 2019
Orbit: 652 x 4224 km, 34.3° (Epoch: 19 August)

Event Time Altitude Azimuth Distance (km) Brightness Sun altitude
Rises 21:22:38 0° 270° (W) 5,992 12.2 -8.0°
Reaches altitude 10° 21:31:40 10° 237° (WSW) 3,846 10.6 -8.8°
Maximum altitude 21:33:05 10° 229° (SW) 3,630 10.4 -8.9°
Drops below altitude 10° 21:34:25 10° 220° (SW) 3,489 10.2 -9.0°
Enters shadow 21:39:15 - 186° (S) 3,597 10.0 -9.5°
Sets 21:40:11 0° 180° (S) 3,732 - -9.6°
